Flag for Trinidad and Tobago Weather past 2 weeks in San Fernando, Trinidad and Tobago

Now
82 °F

Scattered clouds.


Feels Like: 87 °F
Forecast: 72 / 86 °F
Wind: 8 mph from Southeast

Location: Piarco International Airport - Trinidad

Current Time: Mar 3, 2015 at 9:26:02 AM

Latest Report: Mar 3, 2015 at 9:00 AM


Visibility: N/A

Pressure: 29.95 "Hg

Humidity: 70%

Dew point: 72 °F

Location of San FernandoLocation

Historic Weather in San Fernando — Graph

°F

San Fernando temperature yesterday

Maximum temperature yesterday: 84 °F (at 10:00 AM)
Minimum temperature yesterday: 70 °F (at 3:00 AM)
Average temperature yesterday: 76 °F

Past Weeks' High & Low Weather Summary

 TemperatureHumidityPressure
High91 °F (Feb 17, 1:00 PM)100% (Feb 26, 11:00 PM)30.04 "Hg (Feb 26, 11:00 PM)
Low68 °F (Feb 19, 6:00 AM)43% (Feb 23, 12:00 PM)29.83 "Hg (Feb 19, 4:00 PM)
Average79 °F75%29.93 "Hg
* Reported Feb 16 8:00 AM — Mar 3 8:00 AM, San Fernando, Weather by CustomWeather, © 2015

Note: Actual official high and low records may vary slightly from our data, if they occured in-between our weather recording intervals... More about our weather records

Advertising

San Fernando weather history for previous 24 hours

 ConditionsComfort  
Time TempWeatherWind HumidityBarometerVisibility
8:00 AM
Tue, Mar 3
77 °FPassing clouds.No wind83%29.92 "HgN/A
7:00 AM72 °FPassing clouds.No wind94%29.89 "HgN/A
6:00 AM72 °FPassing clouds.No wind94%29.86 "HgN/A
5:00 AM70 °FPassing clouds.No wind94%29.86 "HgN/A
4:00 AM72 °FPassing clouds.No wind94%29.86 "HgN/A
3:00 AM72 °FPassing clouds.No wind94%29.86 "HgN/A
2:00 AM72 °FPassing clouds.No wind94%29.89 "HgN/A
1:00 AM72 °FPassing clouds.No wind88%29.89 "HgN/A
12:00 AM72 °FPassing clouds.No wind94%29.92 "HgN/A
11:00 PM
Mon, Mar 2
72 °FPassing clouds.No wind94%29.95 "HgN/A
10:00 PM73 °FPassing clouds.No wind89%29.92 "HgN/A
9:00 PM73 °FPassing clouds.No wind89%29.92 "HgN/A
8:00 PM75 °FPassing clouds.No wind89%29.89 "HgN/A
7:00 PM75 °FPassing clouds.No wind89%29.89 "HgN/A
6:00 PM77 °FPassing clouds.3 mph83%29.89 "HgN/A
5:00 PM81 °FBroken clouds.No wind70%29.89 "Hg5 mi
4:00 PM82 °FBroken clouds.No wind66%29.89 "HgN/A
3:00 PM82 °FBroken clouds.13 mph66%29.89 "Hg6 mi
2:00 PM79 °FBroken clouds.13 mph74%29.92 "Hg2 mi
1:00 PM84 °FSprinkles. Broken clouds.12 mph62%29.92 "HgN/A
12:00 PM79 °FLight rain. Partly sunny.13 mph79%29.95 "Hg6 mi
11:00 AM77 °FSprinkles. Partly sunny.7 mph89%29.98 "Hg2 mi
10:00 AM84 °FPartly sunny.12 mph62%29.98 "HgN/A
9:00 AM82 °FPassing clouds.No wind70%29.98 "HgN/A
Weather by CustomWeather, © 2015

See weather overviewHow to use our weather pages